Weather History for Parsons, KS

Change the Weather History Date:

Monday, April 22, 2013

  Actual Average Record
Temperature  
Mean Temperature 14 °C -  
Max Temperature 21 °C 20 °C 31 °C (1955)
Min Temperature 9 °C 8 °C -2 °C (1986)
Degree Days  
Heating Degree Days 7    
Growing Degree Days 8 (Base 50)    
Moisture  
Dew Point 7 °C    
Average Humidity 58    
Maximum Humidity 89    
Minimum Humidity 40    
Precipitation  
Precipitation 3.30 mm - - ()
Sea Level Pressure  
Sea Level Pressure 1016 hPa    
Wind  
Wind Speed 11 km/h (SE)    
Max Wind Speed 26 km/h    
Max Gust Speed 39 km/h    
Visibility 15 kilometers    
Events Rain , Thunderstorm    
Averages and records for this station are not official NWS values.
T = Trace of Precipitation, MM = Missing Value Source: NWS Daily Summary

Daily Weather History Graph

Daily Weather History Graph

Search for Another Location

Airport:

Trip Planner

Search our weather history database for the weather conditions in past years. The results will help you decide how hot, cold, wet, or windy it might be!

Date:

Astronomy

Apr. 22, 2013 Rise Set
Actual Time 6:37 AM CDT 8:03 PM CDT
Civil Twilight 6:10 AM CDT 8:31 PM CDT
Nautical Twilight 5:37 AM CDT 9:04 PM CDT
Astronomical Twilight 5:03 AM CDT 9:38 PM CDT
Moon 4:57 PM CDT (4/22) 4:28 AM CDT (4/22)
Length of Visible Light 14h 20m
Length of Day
13h 26m
Waxing Gibbous, 88% of the Moon is Illuminated
Apr 22
Waxing Gibbous
Apr 25
Full
May 2
Last Quarter
May 9
New
May 17
First Quarter

Hourly Weather History & Observations

Time (CDT) Temp. Dew Point Humidity Pressure Visibility Wind Dir Wind Speed Gust Speed Precip Events Conditions
12:52 AM 12.8 °C 5.0 °C 59% 1020.4 hPa 16.1 km SSE 13.0 km/h / 3.6 m/s - N/A   Clear
1:52 AM 11.7 °C 3.9 °C 59% 1020.0 hPa 16.1 km SSE 5.6 km/h / 1.5 m/s - N/A   Clear
2:52 AM 10.6 °C 3.9 °C 63% 1019.3 hPa 16.1 km SSE 7.4 km/h / 2.1 m/s - N/A   Clear
3:52 AM 10.0 °C 3.3 °C 63% 1019.2 hPa 16.1 km SE 5.6 km/h / 1.5 m/s - N/A   Clear
4:52 AM 10.0 °C 3.9 °C 66% 1019.3 hPa 16.1 km SE 7.4 km/h / 2.1 m/s - N/A   Clear
5:52 AM 10.0 °C 3.9 °C 66% 1019.5 hPa 16.1 km SSE 5.6 km/h / 1.5 m/s - N/A   Clear
6:52 AM 9.4 °C 3.9 °C 69% 1019.4 hPa 16.1 km SE 5.6 km/h / 1.5 m/s - N/A   Clear
7:52 AM 11.1 °C 4.4 °C 63% 1019.4 hPa 16.1 km SSE 11.1 km/h / 3.1 m/s - N/A   Clear
8:52 AM 12.2 °C 5.0 °C 62% 1019.0 hPa 16.1 km SSE 11.1 km/h / 3.1 m/s - N/A   Clear
9:52 AM 15.6 °C 5.6 °C 51% 1018.8 hPa 16.1 km SSE 16.7 km/h / 4.6 m/s 27.8 km/h / 7.7 m/s N/A   Clear
10:52 AM 17.8 °C 5.6 °C 45% 1018.2 hPa 16.1 km SSE 18.5 km/h / 5.1 m/s 35.2 km/h / 9.8 m/s N/A   Clear
11:52 AM 19.4 °C 5.6 °C 40% 1016.7 hPa 16.1 km South 25.9 km/h / 7.2 m/s 38.9 km/h / 10.8 m/s N/A   Clear
12:52 PM 18.9 °C 6.1 °C 43% 1015.1 hPa 16.1 km SSE 14.8 km/h / 4.1 m/s 37.0 km/h / 10.3 m/s N/A   Clear
1:52 PM 20.0 °C 7.2 °C 43% 1013.6 hPa 16.1 km South 25.9 km/h / 7.2 m/s 35.2 km/h / 9.8 m/s N/A   Mostly Cloudy
2:52 PM 20.0 °C 6.7 °C 42% 1013.2 hPa 16.1 km South 18.5 km/h / 5.1 m/s 35.2 km/h / 9.8 m/s N/A   Overcast
3:52 PM 19.4 °C 6.7 °C 44% 1013.6 hPa 16.1 km South 9.3 km/h / 2.6 m/s - N/A   Overcast
4:52 PM 20.0 °C 7.2 °C 43% 1012.5 hPa 16.1 km SSE 11.1 km/h / 3.1 m/s - N/A   Overcast
5:52 PM 20.0 °C 7.2 °C 43% 1012.4 hPa 16.1 km ESE 7.4 km/h / 2.1 m/s - N/A   Mostly Cloudy
6:52 PM 20.0 °C 8.3 °C 47% 1011.7 hPa 16.1 km ESE 5.6 km/h / 1.5 m/s - N/A   Clear
7:52 PM 18.3 °C 8.3 °C 52% 1011.5 hPa 16.1 km Calm Calm - N/A   Clear
8:52 PM 17.8 °C 8.3 °C 54% 1012.0 hPa 16.1 km East 5.6 km/h / 1.5 m/s - N/A   Mostly Cloudy
9:40 PM 17.0 °C 8.0 °C 55% 1011.7 hPa 16.1 km Variable 11.1 km/h / 3.1 m/s - N/A Thunderstorm Overcast
9:52 PM 16.1 °C 8.9 °C 62% 1012.0 hPa 16.1 km NE 11.1 km/h / 3.1 m/s - 0.0 mm Rain , Thunderstorm Light Rain
10:52 PM 13.3 °C 11.1 °C 87% 1014.7 hPa 8.0 km ENE 5.6 km/h / 1.5 m/s - 3.3 mm Rain , Thunderstorm Rain
11:09 PM 13.0 °C 11.0 °C 88% 1014.4 hPa 8.0 km NE 7.4 km/h / 2.1 m/s - N/A Rain Rain
11:52 PM 12.8 °C 11.1 °C 89% 1013.4 hPa 6.4 km ENE 11.1 km/h / 3.1 m/s - N/A Rain Rain